Location: Asheville, NC
(35.6000°N, 82.5500°W)
Time: 03:58:44
(UTC-04:00)

STARS - Pass Details

Date: 10 January 2018
Orbit: 625 x 641 km, 98.3° (Epoch: 16 July)

Event Time Altitude Azimuth Distance (km) Brightness Sun altitude
Rises 17:57:29 0° 24° (NNE) 2,928 ? -4.8°
Reaches altitude 10° 17:59:53 10° 34° (NE) 2,018 ? -5.3°
Maximum altitude 18:03:49 32° 98° (E) 1,085 ? -6.0°
Drops below altitude 10° 18:07:46 10° 162° (SSE) 2,014 ? -6.8°
Sets 18:10:09 0° 172° (S) 2,921 ? -7.2°
